Regional Weather Roundup
Issued by NWS

Home | Current Version | Previous Version | Text Only | Print | Product List | Glossary Off
Versions: 1 2 3 4 5 6 7 8 9 10 11 12 13 14 15 16 17 18 19 20 21 22 23 24 25 26 27 28 29 30 31 32 33 34 35 36 37 38 39 40 41 42 43 44 45 46 47 48 49 50

000
ASUS45 KABQ 200701
RWRNM
WEATHER ROUNDUP FOR NEW MEXICO
NATIONAL WEATHER SERVICE ALBUQUERQUE NM
1200 AM MST SAT DEC 20 2014

NOTE: "FAIR" MEANS FEW OR NO CLOUDS BELOW 12,000 FEET AGL WITH NO
       SIGNIFICANT WEATHER OR OBSTRUCTIONS TO VISION.

      THIS PRODUCT IS RELEASED AS TWO VERSIONS.  ONE VERSION NEAR
      THE TOP OF THE HOUR CONTAINING PRELIMINARY DATA FROM ALBUQUERQUE
      AND OTHER STATIONS.  A FINAL VERSION WITH ADDITIONAL DATA IS
      ISSUED ABOUT 10 MINUTES AFTER THE HOUR.

NMZ501-503-504-510>518-200800-
NORTHWEST PLATEAU/NORTHCENTRAL MOUNTAINS

CITY           SKY/WX    TMP DP  RH WIND       PRES   REMARKS
FARMINGTON     CLEAR     26  22  84 CALM      30.20R
SANTA FE       PTCLDY    27  18  69 NW10      30.16S WCI  17
TAOS           PTCLDY    16  10  79 CALM      30.18S
ANGEL FIRE     FAIR       5   2  88 CALM      30.16R

$$
NMZ402-403-502-505>509-200800-
WESTCENTRAL MOUNTAINS/SOUTHWEST MOUNTAINS

CITY           SKY/WX    TMP DP  RH WIND       PRES   REMARKS
GALLUP         CLEAR     25  21  85 S3        30.21S
GRANTS         CLEAR     21  20  93 W8        30.21F WCI  12
SILVER CITY    CLEAR     30  28  93 CALM      30.21S

$$
NMZ407-409-411-412-200800-
SOUTHERN DESERTS

CITY           SKY/WX    TMP DP  RH WIND       PRES   REMARKS
LORDSBURG      FAIR      32  32 100 CALM      30.19S
DEMING         CLEAR     31  29  92 CALM      30.19S
HOLLOMAN AFB   CLEAR     30  26  85 NE6       30.16S WCI  24
ALAMOGORDO     CLEAR     32  27  80 CALM      30.17S
T OR C         CLEAR     30  23  75 W5        30.18S WCI  25

$$
NMZ519>523-200800-
CENTRAL VALLEYS/CENTRAL HIGHLANDS

CITY           SKY/WX    TMP DP  RH WIND       PRES   REMARKS
ALBUQUERQUE    PTCLDY    33  24  69 N6        30.20F WCI  28
DOUBLE EAGLE   CLEAR     26  21  82 W5        30.19F WCI  20
MORIARTY ARPT  FAIR      23  18  81 NE5       30.14F WCI  17
CLINES CORNERS PTCLDY    25  18  74 NW21G29   30.07F WCI  11
BELEN          FAIR      26  23  87 N7        30.19F WCI  18
SOCORRO        FAIR      27  24  86 W5        30.20S WCI  22

$$
NMZ524>526-539-540-200800-
SOUTHCENTRAL MOUNTAINS

CITY           SKY/WX    TMP DP  RH WIND       PRES   REMARKS
RUIDOSO        PTCLDY    27  16  63 W6        30.16F WCI  20

$$
NMZ527>531-200800-
NORTHEAST HIGHLANDS/NORTHEAST PLAINS

CITY           SKY/WX    TMP DP  RH WIND       PRES   REMARKS
LAS VEGAS      PTCLDY    24  11  57 N5        30.06F WCI  18
RATON          MOCLDY    21  15  78 N6        30.06F WCI  13
CLAYTON        PTCLDY    28  24  85 W7        30.06F WCI  21

$$
NMZ532>537-200800-
EASTCENTRAL PLAINS

CITY           SKY/WX    TMP DP  RH WIND       PRES   REMARKS
TUCUMCARI      PTCLDY    28  26  92 S5        30.08F WCI  23
CANNON AFB     CLOUDY    32  32  99 S8        30.12F FOG     WCI  25
CLOVIS AIRPORT CLOUDY    32  30  93 S10       30.12F VSB 1/2 WCI  24

$$
NMZ028-029-538-200800-
SOUTHEAST PLAINS

CITY           SKY/WX    TMP DP  RH WIND       PRES   REMARKS
ROSWELL        CLEAR     31  20  63 CALM      30.13F
ARTESIA        CLEAR     32  27  80 W12       30.15F WCI  23
CARLSBAD       CLEAR     36  25  64 NW3       30.12F
HOBBS          FOG       36  36 100 SE7       30.16F VSB 1/2 WCI  30


$$



USA.gov is the U.S. government's official web portal to all federal, state and local government web resources and services.